| time (UTC) | temp F | wind direction | speed MPH | gust MPH | rain 1hr in | rain 24hr in | rain mn in | humidity % | barometer mb |
| 20260906033825 | 81 | 45 | 0.0 | 0.0 | 0.00 | 0.44 | 0.44 | 90 | 1013.5 |
| 20260906032824 | 81 | 45 | 0.0 | 0.0 | 0.00 | 0.44 | 0.44 | 91 | 1013.5 |
| 20260906032726 | 81 | 45 | 0.0 | 0.0 | 0.00 | 0.44 | 0.44 | 91 | 1013.6 |
| 20260906031825 | 81 | 45 | 0.0 | 0.0 | 0.00 | 0.44 | 0.44 | 91 | 1013.4 |
| 20260906030824 | 81 | 45 | 0.0 | 0.0 | 0.00 | 0.44 | 0.44 | 91 | 1013.2 |
| 20260906025827 | 81 | 45 | 0.0 | 0.0 | 0.00 | 0.44 | 0.44 | 91 | 1013.4 |
| 20260906023928 | 81 | 45 | 0.0 | 0.0 | 0.00 | 0.44 | 0.44 | 90 | 1013.0 |
| 20260906022926 | 81 | 45 | 0.0 | 0.0 | 0.00 | 0.44 | 0.44 | 90 | 1013.1 |
| 20260906021026 | 81 | 45 | 0.0 | 0.0 | 0.00 | 0.44 | 0.44 | 89 | 1012.7 |
| 20260906015028 | 82 | 45 | 0.0 | 0.0 | 0.00 | 0.44 | 0.44 | 87 | 1012.7 |
| 20260906014125 | 82 | 45 | 0.0 | 0.0 | 0.00 | 0.44 | 0.44 | 86 | 1012.5 |
| 20260906012324 | 83 | 45 | 0.0 | 0.0 | 0.00 | 0.44 | 0.44 | 84 | 1012.3 |
| 20260906011326 | 83 | 45 | 0.0 | 0.0 | 0.00 | 0.44 | 0.44 | 82 | 1012.4 |
| 20260906010326 | 84 | 45 | 0.0 | 0.0 | 0.00 | 0.44 | 0.44 | 82 | 1012.3 |
| 20260906004325 | 84 | 45 | 0.0 | 0.0 | 0.00 | 0.44 | 0.44 | 81 | 1012.5 |
| 20260906003328 | 84 | 45 | 0.0 | 2.0 | 0.00 | 0.44 | 0.44 | 81 | 1012.4 |
| 20260906002327 | 85 | 22 | 0.0 | 1.0 | 0.00 | 0.44 | 0.44 | 80 | 1012.4 |
| 20260906000327 | 85 | 22 | 1.0 | 2.0 | 0.00 | 0.44 | 0.44 | 79 | 1013.0 |
| 20260905235326 | 85 | 67 | 0.0 | 0.0 | 0.00 | 0.44 | 0.44 | 79 | 1012.8 |
| 20260905234325 | 85 | 142 | 0.0 | 0.0 | 0.00 | 0.44 | 0.44 | 79 | 1012.8 |
| 20260905234226 | 85 | 112 | 0.0 | 0.0 | 0.00 | 0.44 | 0.44 | 78 | 1012.8 |
| 20260905233227 | 86 | 90 | 0.0 | 0.0 | 0.00 | 0.44 | 0.44 | 77 | 1012.8 |
| 20260905232226 | 86 | 67 | 0.0 | 0.0 | 0.00 | 0.44 | 0.44 | 77 | 1012.7 |
| 20260905231226 | 86 | 135 | 0.0 | 0.0 | 0.00 | 0.44 | 0.44 | 76 | 1012.5 |
| 20260905230227 | 86 | 189 | 0.0 | 0.0 | 0.00 | 0.44 | 0.44 | 76 | 1012.6 |
| 20260905225325 | 86 | 157 | 0.0 | 0.0 | 0.00 | 0.44 | 0.44 | 75 | 1012.6 |
| 20260905224326 | 87 | 42 | 0.0 | 3.0 | 0.00 | 0.44 | 0.44 | 75 | 1012.5 |
| 20260905223348 | 87 | 284 | 0.0 | 1.0 | 0.00 | 0.44 | 0.44 | 74 | 1012.6 |
| 20260905222252 | 87 | 68 | 0.0 | 1.0 | 0.00 | 0.44 | 0.44 | 74 | 1012.4 |
| 20260905222147 | 87 | 90 | 0.0 | 0.0 | 0.00 | 0.44 | 0.44 | 73 | 1012.4 |
| 20260905221151 | 87 | 90 | 0.0 | 0.0 | 0.00 | 0.44 | 0.44 | 73 | 1012.5 |
| 20260905220150 | 88 | 53 | 0.0 | 1.0 | 0.00 | 0.44 | 0.44 | 71 | 1012.4 |
| 20260905215249 | 89 | 103 | 0.0 | 3.0 | 0.00 | 0.44 | 0.44 | 68 | 1012.5 |
| 20260905214248 | 89 | 225 | 0.0 | 0.0 | 0.00 | 0.44 | 0.44 | 62 | 1012.4 |
| 20260905213348 | 90 | 225 | 0.0 | 0.0 | 0.00 | 0.44 | 0.44 | 61 | 1012.6 |
| 20260905212348 | 90 | 69 | 0.0 | 0.0 | 0.00 | 0.44 | 0.44 | 60 | 1012.7 |
| 20260905210349 | 90 | 149 | 0.0 | 0.0 | 0.00 | 0.44 | 0.44 | 63 | 1012.7 |
| 20260905205348 | 90 | 180 | 0.0 | 0.0 | 0.00 | 0.44 | 0.44 | 62 | 1012.8 |
| 20260905205250 | 90 | 180 | 0.0 | 0.0 | 0.00 | 0.44 | 0.44 | 62 | 1012.8 |
| 20260905204349 | 89 | 212 | 0.0 | 0.0 | 0.00 | 0.44 | 0.44 | 64 | 1012.8 |
| 20260905203448 | 89 | 199 | 0.0 | 0.0 | 0.00 | 0.44 | 0.44 | 67 | 1013.1 |
| 20260905202448 | 88 | 252 | 0.0 | 2.0 | 0.00 | 0.44 | 0.44 | 71 | 1013.2 |
| 20260905201450 | 87 | 225 | 0.0 | 0.0 | 0.00 | 0.44 | 0.44 | 74 | 1013.1 |
| 20260905200450 | 86 | 225 | 0.0 | 2.0 | 0.00 | 0.44 | 0.44 | 76 | 1013.3 |
| 20260905195548 | 86 | 225 | 0.0 | 2.0 | 0.00 | 0.44 | 0.44 | 77 | 1013.2 |
| 20260905194548 | 85 | 225 | 1.0 | 2.0 | 0.00 | 0.44 | 0.44 | 80 | 1013.1 |
| 20260905193648 | 84 | 247 | 0.0 | 0.0 | 0.00 | 0.45 | 0.44 | 82 | 1013.2 |
| 20260905192651 | 84 | 270 | 0.0 | 0.0 | 0.00 | 0.46 | 0.44 | 85 | 1013.3 |
| 20260905191748 | 84 | 225 | 0.0 | 0.0 | 0.00 | 0.47 | 0.44 | 83 | 1013.8 |
| 20260905190750 | 84 | 225 | 0.0 | 0.0 | 0.00 | 0.48 | 0.44 | 84 | 1014.0 |
| 20260905184847 | 84 | 225 | 0.0 | 1.0 | 0.00 | 0.48 | 0.44 | 87 | 1014.1 |
| 20260905183850 | 82 | 225 | 0.0 | 0.0 | 0.00 | 0.49 | 0.44 | 90 | 1014.4 |
| 20260905182849 | 81 | 225 | 0.0 | 0.0 | 0.02 | 0.52 | 0.44 | 92 | 1014.6 |
| 20260905180849 | 78 | 202 | 0.0 | 1.0 | 0.14 | 0.52 | 0.44 | 95 | 1014.7 |
| 20260905175851 | 77 | 202 | 1.0 | 1.0 | 0.16 | 0.52 | 0.44 | 95 | 1014.7 |
| 20260905174850 | 76 | 202 | 0.0 | 0.0 | 0.22 | 0.52 | 0.44 | 94 | 1015.1 |
| 20260905173850 | 76 | 202 | 1.0 | 2.0 | 0.42 | 0.52 | 0.44 | 93 | 1015.3 |
| 20260905172849 | 76 | 180 | 0.0 | 0.0 | 0.42 | 0.50 | 0.42 | 91 | 1015.3 |
| 20260905171849 | 77 | 84 | 0.0 | 0.0 | 0.37 | 0.45 | 0.36 | 91 | 1015.7 |
| 20260905171747 | 77 | 90 | 0.0 | 0.0 | 0.36 | 0.44 | 0.36 | 91 | 1015.7 |
| 20260905170749 | 78 | 60 | 0.0 | 1.0 | 0.30 | 0.38 | 0.30 | 90 | 1015.7 |
| 20260905165751 | 80 | 13 | 0.0 | 3.0 | 0.28 | 0.36 | 0.28 | 89 | 1015.8 |
| 20260905164748 | 81 | 202 | 0.0 | 0.0 | 0.21 | 0.28 | 0.18 | 84 | 1015.5 |
| 20260905163749 | 84 | 218 | 0.0 | 2.0 | 0.02 | 0.10 | 0.01 | 77 | 1015.3 |
| 20260905161850 | 89 | 225 | 0.0 | 0.0 | 0.00 | 0.08 | 0.00 | 69 | 1015.3 |
| 20260905160949 | 89 | 180 | 0.0 | 0.0 | 0.00 | 0.08 | 0.00 | 67 | 1015.2 |
| 20260905155949 | 89 | 135 | 0.0 | 0.0 | 0.00 | 0.08 | 0.00 | 69 | 1015.2 |
| 20260905155048 | 88 | 225 | 0.0 | 0.0 | 0.00 | 0.08 | 0.00 | 73 | 1015.2 |
| 20260905154050 | 88 | 157 | 0.0 | 0.0 | 0.00 | 0.08 | 0.00 | 74 | 1015.1 |
| 20260905153050 | 88 | 67 | 0.0 | 0.0 | 0.00 | 0.08 | 0.00 | 74 | 1015.2 |
| 20260905152049 | 87 | 67 | 0.0 | 0.0 | 0.00 | 0.08 | 0.00 | 73 | 1015.2 |
| 20260905151049 | 88 | 67 | 0.0 | 0.0 | 0.00 | 0.08 | 0.00 | 73 | 1015.2 |
| 20260905150148 | 88 | 156 | 0.0 | 0.0 | 0.00 | 0.08 | 0.00 | 75 | 1015.1 |
| 20260905145150 | 88 | 157 | 0.0 | 0.0 | 0.00 | 0.08 | 0.00 | 76 | 1015.1 |
| 20260905143150 | 87 | 180 | 0.0 | 0.0 | 0.00 | 0.08 | 0.00 | 78 | 1015.0 |
| 20260905142248 | 86 | 67 | 0.0 | 0.0 | 0.00 | 0.08 | 0.00 | 79 | 1015.2 |
| 20260905141251 | 85 | 67 | 0.0 | 0.0 | 0.00 | 0.08 | 0.00 | 82 | 1015.2 |
| 20260905140249 | 84 | 67 | 0.0 | 0.0 | 0.00 | 0.08 | 0.00 | 85 | 1015.2 |
| 20260905134249 | 82 | 225 | 0.0 | 0.0 | 0.00 | 0.08 | 0.00 | 94 | 1014.9 |
| 20260905133347 | 81 | 225 | 0.0 | 0.0 | 0.00 | 0.08 | 0.00 | 95 | 1015.0 |
| 20260905132350 | 80 | 225 | 0.0 | 0.0 | 0.00 | 0.08 | 0.00 | 96 | 1014.9 |
| 20260905131448 | 79 | 225 | 0.0 | 0.0 | 0.00 | 0.08 | 0.00 | 96 | 1014.8 |
| 20260905130449 | 79 | 225 | 0.0 | 0.0 | 0.00 | 0.08 | 0.00 | 97 | 1014.8 |
| 20260905125450 | 78 | 225 | 0.0 | 0.0 | 0.00 | 0.08 | 0.00 | 97 | 1014.7 |
| 20260905124449 | 77 | 225 | 0.0 | 0.0 | 0.00 | 0.08 | 0.00 | 96 | 1014.4 |
| 20260905123448 | 77 | 225 | 0.0 | 0.0 | 0.00 | 0.08 | 0.00 | 97 | 1014.4 |
| 20260905122449 | 77 | 225 | 0.0 | 0.0 | 0.00 | 0.08 | 0.00 | 95 | 1014.4 |
| 20260905121548 | 77 | 225 | 0.0 | 0.0 | 0.00 | 0.08 | 0.00 | 96 | 1014.3 |
| 20260905120647 | 77 | 225 | 0.0 | 0.0 | 0.00 | 0.08 | 0.00 | 96 | 1014.3 |
| 20260905115650 | 77 | 225 | 0.0 | 0.0 | 0.00 | 0.08 | 0.00 | 95 | 1013.9 |
| 20260905113649 | 77 | 225 | 0.0 | 0.0 | 0.00 | 0.08 | 0.00 | 96 | 1013.8 |
| 20260905112747 | 77 | 225 | 0.0 | 0.0 | 0.00 | 0.08 | 0.00 | 96 | 1013.7 |
| 20260905110848 | 77 | 225 | 0.0 | 0.0 | 0.00 | 0.08 | 0.00 | 96 | 1013.5 |
| 20260905110747 | 77 | 225 | 0.0 | 0.0 | 0.00 | 0.08 | 0.00 | 96 | 1013.6 |
| 20260905105847 | 77 | 225 | 0.0 | 0.0 | 0.00 | 0.08 | 0.00 | 96 | 1013.5 |
| 20260905104848 | 77 | 225 | 0.0 | 0.0 | 0.00 | 0.08 | 0.00 | 96 | 1013.4 |
| 20260905103947 | 77 | 225 | 0.0 | 0.0 | 0.00 | 0.08 | 0.00 | 96 | 1013.5 |
| 20260905102952 | 77 | 225 | 0.0 | 0.0 | 0.00 | 0.08 | 0.00 | 95 | 1013.2 |
| 20260905101050 | 77 | 225 | 0.0 | 0.0 | 0.00 | 0.08 | 0.00 | 94 | 1013.3 |
| 20260905100148 | 77 | 225 | 0.0 | 0.0 | 0.00 | 0.08 | 0.00 | 95 | 1013.4 |
| 20260905095149 | 77 | 225 | 0.0 | 0.0 | 0.00 | 0.08 | 0.00 | 94 | 1013.4 |
| 20260905094148 | 77 | 225 | 0.0 | 0.0 | 0.00 | 0.08 | 0.00 | 94 | 1013.5 |
| 20260905093151 | 77 | 225 | 0.0 | 0.0 | 0.00 | 0.08 | 0.00 | 95 | 1013.5 |
| 20260905091148 | 77 | 225 | 0.0 | 0.0 | 0.00 | 0.08 | 0.00 | 95 | 1013.2 |
| 20260905090149 | 78 | 225 | 0.0 | 0.0 | 0.00 | 0.08 | 0.00 | 94 | 1013.4 |
| 20260905085247 | 78 | 225 | 0.0 | 0.0 | 0.00 | 0.08 | 0.00 | 94 | 1013.4 |
| 20260905083350 | 78 | 225 | 0.0 | 0.0 | 0.00 | 0.08 | 0.00 | 94 | 1013.1 |
| 20260905082448 | 78 | 225 | 0.0 | 0.0 | 0.00 | 0.08 | 0.00 | 94 | 1013.2 |
| 20260905081450 | 78 | 225 | 0.0 | 0.0 | 0.00 | 0.08 | 0.00 | 94 | 1013.1 |
| 20260905080450 | 78 | 225 | 0.0 | 0.0 | 0.00 | 0.08 | 0.00 | 93 | 1013.2 |
| 20260905075450 | 78 | 225 | 0.0 | 0.0 | 0.00 | 0.08 | 0.00 | 94 | 1013.4 |
| 20260905074449 | 78 | 225 | 0.0 | 0.0 | 0.00 | 0.08 | 0.00 | 93 | 1013.3 |
| 20260905073452 | 78 | 225 | 0.0 | 0.0 | 0.00 | 0.08 | 0.00 | 92 | 1013.2 |
| 20260905070549 | 78 | 225 | 0.0 | 0.0 | 0.00 | 0.08 | 0.00 | 93 | 1013.5 |
| 20260905065549 | 79 | 225 | 0.0 | 0.0 | 0.00 | 0.08 | 0.00 | 92 | 1013.9 |
| 20260905064548 | 79 | 225 | 0.0 | 0.0 | 0.00 | 0.08 | 0.00 | 92 | 1014.0 |
| 20260905063549 | 79 | 225 | 0.0 | 0.0 | 0.00 | 0.08 | 0.00 | 93 | 1013.9 |
| 20260905062549 | 79 | 225 | 0.0 | 0.0 | 0.00 | 0.08 | 0.00 | 92 | 1013.9 |
| 20260905061549 | 79 | 225 | 0.0 | 0.0 | 0.00 | 0.08 | 0.00 | 92 | 1013.9 |
| 20260905060648 | 79 | 225 | 0.0 | 0.0 | 0.00 | 0.08 | 0.00 | 92 | 1014.0 |
| 20260905055747 | 79 | 225 | 0.0 | 0.0 | 0.00 | 0.08 | 0.00 | 90 | 1014.0 |
| 20260905054749 | 80 | 225 | 0.0 | 0.0 | 0.00 | 0.08 | 0.00 | 91 | 1014.2 |
| 20260905053748 | 80 | 225 | 0.0 | 0.0 | 0.00 | 0.08 | 0.00 | 91 | 1014.0 |
| 20260905052749 | 80 | 225 | 0.0 | 0.0 | 0.00 | 0.08 | 0.00 | 91 | 1014.0 |
| 20260905051749 | 80 | 225 | 0.0 | 0.0 | 0.00 | 0.08 | 0.00 | 91 | 1014.1 |
| 20260905050747 | 80 | 225 | 0.0 | 0.0 | 0.00 | 0.08 | 0.00 | 91 | 1013.9 |
| 20260905045828 | 80 | 225 | 0.0 | 0.0 | 0.00 | 0.08 | 0.08 | 90 | 1014.0 |
| 20260905044829 | 80 | 225 | 0.0 | 0.0 | 0.00 | 0.08 | 0.08 | 90 | 1014.1 |
| 20260905043928 | 80 | 225 | 0.0 | 0.0 | 0.00 | 0.08 | 0.08 | 89 | 1014.2 |
| 20260905043830 | 80 | 225 | 0.0 | 0.0 | 0.00 | 0.08 | 0.08 | 89 | 1014.1 |
| 20260905042829 | 81 | 225 | 0.0 | 0.0 | 0.00 | 0.08 | 0.08 | 88 | 1014.2 |
| 20260905034828 | 82 | 225 | 0.0 | 0.0 | 0.00 | 0.08 | 0.08 | 86 | 1014.4 |